EW8946 Weather Reports


Display with metric or nautical units.
time (UTC)temp
F
wind
direction
speed
MPH
gust
MPH
rain 1hr
in
rain 24hr
in
rain mn
in
humidity
%
barometer
mb
20181218104810 39 223 2.0 7.0 0.00 0.00 0.00 90 1025.0
20181218101639 36 193 1.0 3.0 0.00 0.00 0.00 92 1025.4
20181218100120 36 191 1.0 7.0 0.00 0.00 0.00 92 1025.7
20181218094644 35 259 0.0 3.0 0.00 0.00 0.00 94 1025.6
20181218093118 34 162 0.0 3.0 0.00 0.00 0.00 94 1025.5
20181218091552 34 205 2.0 6.0 0.00 0.00 0.00 94 1025.4
20181218090045 34 174 1.0 4.0 0.00 0.00 0.00 95 1025.5
20181218084601 33 167 0.0 2.0 0.00 0.00 0.00 95 1025.8
20181218083045 33 152 0.0 1.0 0.00 0.00 0.00 95 1025.8
20181218081552 31 143 0.0 0.0 0.00 0.00 0.00 95 1025.8
20181218080053 31 143 0.0 0.0 0.00 0.00 0.00 95 1026.2
20181218074535 30 143 0.0 1.0 0.00 0.00 0.00 95 1026.4
20181218073020 30 142 0.0 0.0 0.00 0.00 0.00 95 1026.7
20181218071513 30 142 0.0 1.0 0.00 0.00 0.00 94 1026.7
20181218070003 31 142 0.0 1.0 0.00 0.00 0.00 94 1026.7
20181218064502 31 162 0.0 1.0 0.00 0.00 0.00 94 1026.7
20181218063009 31 166 0.0 2.0 0.00 0.00 0.00 95 1026.8
20181218061812 31 161 0.0 0.0 0.00 0.00 0.00 94 1026.9
20181218060145 31 160 0.0 0.0 0.00 0.00 0.00 94 1027.0
20181218054617 31 161 0.0 0.0 0.00 0.00 0.00 94 1027.1
20181218053149 31 161 0.0 1.0 0.00 0.00 0.00 94 1027.1
20181218051626 31 166 0.0 2.0 0.00 0.00 0.00 94 1026.5
20181218050116 31 158 0.0 1.0 0.00 0.00 0.00 93 1026.9
20181218044731 31 172 0.0 3.0 0.00 0.00 0.00 94 1027.1
20181218043149 32 166 0.0 1.0 0.00 0.00 0.00 93 1027.4
20181218041622 32 152 0.0 3.0 0.00 0.00 0.00 93 1027.4
20181218040210 33 214 2.0 5.0 0.00 0.00 0.00 94 1027.0
20181218034640 32 167 0.0 4.0 0.00 0.00 0.00 95 1027.2
20181218033107 31 158 0.0 1.0 0.00 0.00 0.00 93 1027.5
20181218031559 32 158 0.0 2.0 0.00 0.00 0.00 94 1027.6
20181218030058 31 150 0.0 0.0 0.00 0.00 0.00 94 1028.0
20181218024619 32 150 0.0 1.0 0.00 0.00 0.00 94 1028.4
20181218023118 32 150 0.0 0.0 0.00 0.00 0.00 94 1028.6
20181218021631 32 150 0.0 0.0 0.00 0.00 0.00 94 1028.8
20181218020055 32 151 0.0 1.0 0.00 0.00 0.00 94 1029.1
20181218014620 31 135 0.0 1.0 0.00 0.00 0.00 93 1029.3
20181218013114 31 159 0.0 0.0 0.00 0.00 0.00 93 1029.2
20181218011554 32 159 0.0 0.0 0.00 0.00 0.00 93 1029.0
20181218010107 32 159 0.0 0.0 0.00 0.00 0.00 93 1028.7
20181218004536 33 159 0.0 0.0 0.00 0.00 0.00 92 1028.8
20181218003030 33 159 0.0 1.0 0.00 0.00 0.00 92 1028.5
20181218001632 33 159 0.0 0.0 0.00 0.00 0.00 92 1028.7
20181218000031 33 159 0.0 0.0 0.00 0.00 0.00 91 1028.8
20181217234532 34 159 0.0 1.0 0.00 0.00 0.00 91 1028.7
20181217233028 34 163 0.0 1.0 0.00 0.00 0.00 92 1028.9
20181217231517 35 166 0.0 1.0 0.00 0.00 0.00 91 1028.9
20181217230020 35 166 0.0 1.0 0.00 0.00 0.00 91 1029.0
20181217224519 35 159 0.0 1.0 0.00 0.00 0.00 90 1029.4
20181217223003 36 159 0.0 0.0 0.00 0.00 0.00 90 1029.2
20181217221503 36 158 0.0 0.0 0.00 0.00 0.00 89 1029.5
20181217220157 36 157 0.0 1.0 0.00 0.00 0.00 90 1029.3
20181217214805 37 163 0.0 1.0 0.00 0.00 0.00 89 1029.5
20181217213202 38 165 0.0 1.0 0.00 0.00 0.00 89 1029.6
20181217211641 37 152 0.0 1.0 0.00 0.00 0.00 90 1029.5
20181217210246 37 151 0.0 0.0 0.00 0.00 0.00 88 1029.4
20181217203153 38 151 0.0 0.0 0.00 0.00 0.00 87 1029.3
20181217201637 38 151 0.0 0.0 0.00 0.00 0.00 86 1029.3
20181217200141 39 151 0.0 1.0 0.00 0.00 0.00 85 1029.3
20181217194713 39 140 0.0 0.0 0.00 0.00 0.00 85 1029.0
20181217193222 39 139 0.0 0.0 0.00 0.00 0.00 85 1029.1
20181217191635 40 139 0.0 1.0 0.00 0.00 0.00 85 1029.1
20181217190201 40 120 0.0 0.0 0.00 0.00 0.00 84 1029.1
20181217184635 40 120 0.0 0.0 0.00 0.00 0.00 82 1029.1
20181217183113 41 120 0.0 0.0 0.00 0.00 0.00 82 1029.1
20181217181623 41 120 0.0 0.0 0.00 0.00 0.00 81 1029.0
20181217180152 42 120 0.0 0.0 0.00 0.00 0.00 80 1029.0
20181217174622 44 120 0.0 3.0 0.00 0.00 0.00 79 1028.8
20181217173148 44 181 0.0 5.0 0.00 0.00 0.00 79 1028.9
20181217171622 44 169 0.0 2.0 0.00 0.00 0.00 80 1028.8
20181217170139 45 156 0.0 1.0 0.00 0.00 0.00 78 1028.7
20181217164640 46 153 0.0 1.0 0.00 0.00 0.00 76 1028.6
20181217163158 48 153 0.0 1.0 0.00 0.00 0.00 73 1028.7
20181217161639 49 141 0.0 2.0 0.00 0.00 0.00 69 1028.6
20181217160137 50 141 0.0 2.0 0.00 0.00 0.00 67 1028.7
20181217154639 51 139 1.0 4.0 0.00 0.00 0.00 64 1028.8
20181217153137 52 122 2.0 5.0 0.00 0.00 0.00 62 1028.7
20181217151620 51 128 0.0 5.0 0.00 0.00 0.00 63 1028.6
20181217150228 51 150 0.0 4.0 0.00 0.00 0.00 63 1028.7
20181217144645 51 142 1.0 6.0 0.00 0.00 0.00 63 1028.7
20181217143119 52 150 2.0 8.0 0.00 0.00 0.00 62 1028.6
20181217141644 52 147 2.0 6.0 0.00 0.00 0.00 62 1028.5
20181217140058 51 126 1.0 8.0 0.00 0.00 0.00 62 1028.5
20181217134549 51 132 3.0 9.0 0.00 0.00 0.00 62 1028.5
20181217133113 51 139 3.0 8.0 0.00 0.00 0.00 62 1028.7
20181217131617 51 120 2.0 6.0 0.00 0.00 0.00 64 1028.8
20181217130112 49 115 2.0 8.0 0.00 0.00 0.00 66 1028.9
20181217124541 49 129 1.0 12.0 0.00 0.00 0.00 68 1028.8
20181217123039 48 103 6.0 10.0 0.00 0.00 0.00 68 1028.8
20181217121537 48 120 4.0 8.0 0.00 0.00 0.00 69 1029.0
20181217120056 48 141 2.0 9.0 0.00 0.00 0.00 68 1029.0
20181217114606 48 139 7.0 10.0 0.00 0.00 0.00 68 1029.0
20181217111522 47 115 5.0 9.0 0.00 0.00 0.00 69 1029.8
20181217110012 46 117 4.0 8.0 0.00 0.00 0.00 70 1030.0